This is the latest recevied weather packets stored in our database for station/object KK4PWJ-13. If no packets are shown the sender has not sent any weather packets the latest 1 day(s).
| Time | Temp. | Humidity | Pressure | Rain* | Wind** | Luminosity | Snow |
|---|---|---|---|---|---|---|---|
| 1777985687 | 14.44° C | 83% | 1014.9 hPa | 0 mm | 0 m/s | 51 W/m² | - |
| 1777985383 | 13.89° C | 84% | 1015.1 hPa | 0 mm | 0 m/s | 60 W/m² | - |
| 1777985080 | 13.33° C | 86% | 1014.9 hPa | 0 mm | 0 m/s | 45 W/m² | - |
| 1777984777 | 12.78° C | 88% | 1015 hPa | 0 mm | 0 m/s | 22 W/m² | - |
| 1777984473 | 12.78° C | 89% | 1015 hPa | 0 mm | 0 m/s | 23 W/m² | - |
| 1777984169 | 12.22° C | 89% | 1015 hPa | 0 mm | 0 m/s | 24 W/m² | - |
| 1777983867 | 11.67° C | 90% | 1015.1 hPa | 0 mm | 0 m/s | 25 W/m² | - |
| 1777983563 | 11.67° C | 90% | 1015.1 hPa | 0 mm | 0 m/s | 25 W/m² | - |
| 1777983261 | 11.11° C | 90% | 1015.1 hPa | 0 mm | 0 m/s | 24 W/m² | - |
| 1777982956 | 11.11° C | 90% | 1015.1 hPa | 0 mm | 0 m/s | 22 W/m² | - |
| 1777982653 | 10.56° C | 91% | 1015 hPa | 0 mm | 0 m/s | 23 W/m² | - |
| 1777982352 | 10.56° C | 91% | 1015.1 hPa | 0 mm | 0 m/s | 21 W/m² | - |
| 1777982048 | 10° C | 92% | 1015 hPa | 0 mm | 0 m/s | 20 W/m² | - |
| 1777981747 | 10° C | 93% | 1014.8 hPa | 0 mm | 0 m/s | 19 W/m² | - |
| 1777981443 | 10° C | 93% | 1014.9 hPa | 0 mm | 0 m/s | 19 W/m² | - |
| 1777981139 | 10° C | 93% | 1014.8 hPa | 0 mm | 0 m/s | 18 W/m² | - |
| 1777980836 | 9.44° C | 94% | 1014.9 hPa | 0 mm | 0 m/s | 19 W/m² | - |
| 1777980531 | 9.44° C | 94% | 1014.8 hPa | 0 mm | 0 m/s | 18 W/m² | - |
| 1777980229 | 9.44° C | 94% | 1014.8 hPa | 0 mm | 0 m/s | 17 W/m² | - |
| 1777979925 | 9.44° C | 94% | 1014.8 hPa | 0 mm | 0 m/s | 17 W/m² | - |
| 1777979620 | 8.89° C | 94% | 1014.6 hPa | 0 mm | 0 m/s | 18 W/m² | - |
| 1777979316 | 8.89° C | 94% | 1014.8 hPa | 0 mm | 0 m/s | 19 W/m² | - |
| 1777979014 | 8.89° C | 94% | 1014.8 hPa | 0 mm | 0 m/s | 18 W/m² | - |
| 1777978710 | 8.89° C | 94% | 1014.7 hPa | 0 mm | 0 m/s | 15 W/m² | - |
| 1777978407 | 8.89° C | 93% | 1014.7 hPa | 0 mm | 0 m/s | 13 W/m² | - |
* Rain latest hour (hover to see other rain measurements)
** Current wind speed in m/s (hover to see current wind gust speed)